Tracking 19720 objects as of 27-Jun-2019
HD Live streaming from Space Station
objects crossing your sky now

FLOCK 2K 02

Track FLOCK 2K 02 now!
10-day predictions
FLOCK 2K 02 is classified as:


NORAD ID: 42853
Int'l Code: 2017-042AE
Perigee: 454.8 km
Apogee: 468.0 km
Inclination: 96.9 °
Period: 93.7 minutes
Semi major axis: 6832 km
RCS: Unknown
Launch date: July 14, 2017
Source: United States (US)
Launch site: TYURATAM MISSILE AND SPACE COMPLEX (TTMTR)
aabbcc
Your satellite tracking list
Your tracking list is empty




NASA's NSSDC Master Catalog

Two Line Element Set (TLE):
1 42853U 17042AE  19177.19881011  .00002295  00000-0  64877-4 0  9994
2 42853  96.9395  57.5976 0009659 191.7156 168.3866 15.37247594108984
Source of the keplerian elements: AFSPC